Location: Unspecified
(50.1700°N, 6.8600°E)
Time: 15:08:01
(UTC+00:00)

SMAP - Pass Details

Date: 24 January 2019
Orbit: 681 x 683 km, 98.1° (Epoch: 22 February)

Event Time Altitude Azimuth Distance (km) Brightness Sun altitude
Rises 06:05:29 0° 14° (NNE) 3,056 6.4 -11.4°
Reaches altitude 10° 06:07:44 10° 14° (NNE) 2,136 5.6 -11.1°
Maximum altitude 06:12:25 89° 297° (WNW) 689 3.1 -10.4°
Drops below altitude 10° 06:17:04 10° 196° (SSW) 2,119 5.6 -9.7°
Sets 06:19:17 0° 197° (SSW) 3,030 6.4 -9.3°
